Home > Weather > Nottingham > Past weeks

Flag for United Kingdom Past Weather in Nottingham, England, United Kingdom — Yesterday and Last 2 Weeks

Now
55 °F

Passing clouds.


Feels Like: 52 °F
Forecast: 49 / 60 °F
Wind: 12 mph from Northwest

Location: East Midlands

Current Time: Jun 27, 2016 at 7:04:49 AM

Latest Report: Jun 27, 2016 at 6:20 AM


Visibility: N/A

Pressure: 29.98 "Hg

Humidity: 94%

Dew Point: 54 °F

Location of NottinghamLocation

Past Weather in Nottingham — Graph

°F

Nottingham Temperature Yesterday

Maximum temperature yesterday: 64 °F (at 1:50 PM)
Minimum temperature yesterday: 54 °F (at 2:20 AM)
Average temperature yesterday: 58 °F

High & Low Weather Summary for the Past Weeks

 TemperatureHumidityPressure
High72 °F (Jun 23, 2:20 PM)100% (Jun 12, 6:50 AM)30.21 "Hg (Jun 12, 6:50 AM)
Low50 °F (Jun 25, 1:50 AM)46% (Jun 24, 1:50 PM)29.33 "Hg (Jun 14, 4:50 PM)
Average59 °F84%29.84 "Hg
* Reported Jun 12 6:20 AM — Jun 27 6:20 AM, Nottingham, Weather by CustomWeather, © 2016

Note: Actual official high and low records may vary slightly from our data, if they occured in-between our weather recording intervals... More about our weather records

Advertising

Nottingham Weather History for the Previous 24 Hours

Scroll right to see more
 ConditionsComfort  
Time TempWeatherWind HumidityBarometerVisibility
6:20 AM
Mon, Jun 27
55 °FPassing clouds.12 mph94%29.98 "HgN/A
5:20 AM54 °FPassing clouds.10 mph94%29.95 "HgN/A
4:50 AM55 °FPassing clouds.12 mph94%29.95 "HgN/A
4:20 AM57 °FPartly cloudy.12 mph88%29.95 "HgN/A
3:50 AM57 °FPassing clouds.12 mph100%29.95 "HgN/A
3:20 AM59 °FMostly cloudy.12 mph94%29.92 "HgN/A
2:50 AM59 °FMostly cloudy.13 mph94%29.92 "HgN/A
2:20 AM59 °FPassing clouds.12 mph94%29.92 "HgN/A
1:20 AM59 °FPartly cloudy.10 mph94%29.92 "Hg2 mi
12:50 AM59 °FPassing clouds.13 mph94%29.92 "Hg3 mi
12:20 AM59 °FPassing clouds.12 mph94%29.95 "HgN/A
11:50 PM
Sun, Jun 26
57 °FPassing clouds.13 mph100%29.95 "HgN/A
11:20 PM57 °FPassing clouds.13 mph100%29.95 "Hg6 mi
10:50 PM57 °FPassing clouds.14 mph94%29.95 "Hg6 mi
10:20 PM57 °FDrizzle. Partly sunny.12 mph94%29.95 "Hg4 mi
9:50 PM57 °FDrizzle. Mostly cloudy.10 mph94%29.95 "Hg4 mi
9:20 PM57 °FDrizzle. Partly sunny.10 mph94%29.98 "Hg5 mi
8:50 PM57 °FDrizzle. Mostly cloudy.10 mph94%29.98 "Hg4 mi
8:20 PM57 °FDrizzle. Broken clouds.12 mph94%29.98 "Hg6 mi
7:50 PM57 °FDrizzle. Broken clouds.12 mph94%29.98 "Hg6 mi
7:20 PM57 °FDrizzle. Broken clouds.9 mph94%29.98 "Hg5 mi
6:50 PM57 °FScattered clouds.12 mph94%29.98 "Hg6 mi
6:20 PM57 °FLight rain. Broken clouds.12 mph94%29.98 "HgN/A
5:50 PM59 °FPassing clouds.15 mph82%30.01 "HgN/A
5:20 PM59 °FPassing clouds.17 mph77%30.01 "HgN/A
4:50 PM61 °FPassing clouds.17 mph68%30.01 "HgN/A
4:20 PM63 °FScattered clouds.17 mph68%30.01 "HgN/A
3:50 PM64 °FBroken clouds.16 mph60%30.01 "HgN/A
3:20 PM64 °FPartly sunny.15 mph64%30.01 "HgN/A
2:50 PM64 °FBroken clouds.10 mph60%30.01 "HgN/A
2:20 PM64 °FScattered clouds.6 mph60%30.01 "HgN/A
1:50 PM64 °FPartly sunny.8 mph64%30.04 "HgN/A
1:20 PM61 °FPartly sunny.12 mph72%30.04 "HgN/A
12:20 PM61 °FPartly sunny.16 mph72%30.04 "HgN/A
11:50 AM63 °FPartly sunny.15 mph68%30.04 "HgN/A
11:20 AM63 °FPartly sunny.16 mph68%30.04 "HgN/A
10:50 AM61 °FPartly sunny.15 mph72%30.04 "HgN/A
10:20 AM59 °FPartly sunny.15 mph77%30.04 "HgN/A
9:50 AM57 °FPartly sunny.14 mph82%30.04 "HgN/A
9:20 AM57 °FPartly sunny.14 mph82%30.04 "HgN/A
8:20 AM55 °FPartly sunny.13 mph88%30.04 "HgN/A
7:50 AM54 °FPartly sunny.13 mph94%30.04 "HgN/A
7:20 AM54 °FPartly sunny.15 mph94%30.04 "HgN/A
Weather by CustomWeather, © 2016

See weather overviewHow to use our weather pages